ZHUHAI-1 OHS-02 (43441 NORAD) Tracking and Keplerian Element Data

This shows tracking and keplerian element data for the satellite.

Feedback or suggestion? Click here.




ElementValue
Catalog43441
NameZHUHAI-1 OHS-02
Epoch Orbit8702
Epoch Day354.29147091
Epoch Year2025
RAAN24.0254
Inclination97.0576
Eccentricity0.0011088
Argument of Perigee138.1774
Mean Anonmoly222.0313
Mean Motion15.23037378
Decay Rate5.215E-05
L11 43441U 18040C 25354.29147091 .00005215 00000+0 22396-3 0 9998
L22 43441 97.0576 24.0254 0011088 138.1774 222.0313 15.23037378 87027



Live tracking and technical data element details for ZHUHAI-1 OHS-02 (NORAD 43441). ZHUHAI-1 OHS-02 can be tracked NOW for your location showing map with azimuth and elevation plus other details from your city location.







IsCatalogInMostPopularTable: catalog: 43441, numindb: 410
Update: records affected: 1



GetName: 43441 ZHUHAI-1 OHS-02

Hit Count: updated at: Thu, 21 May 2026 11:18:12 GMT